カタログに戻る

THOR ABLESTAR DEB

運用中LEO
NORAD 351·DEBRIS·🇺🇸 United States

打ち上げ Jun 29, 1961 から Cape Canaveral Space Force Station

Loading…

次のパス (今後24時間)

TLE

最新Source: Space-Track

元期: Sep 7, 2026, 06:43 UTC

1 00351U 61015DR  26250.28000267  .00006124  00000-0  67757-3 0  9990
2 00351  66.7382 210.8576 0030345 249.9361 109.8500 14.87728284389948

AllMySatでTHOR ABLESTAR DEBをリアルタイム追跡

Download on the App Store